STARLINK-4415, 53465

Orbit data source: Space-Track

STARLINK-4415, 53465 is a payload satellite owned by SpaceX/Seattle (US) in SSO that was launched on Fri, 12 Aug 2022 UTC via an FALCON 9 launch vehicle from the Air Force Western Test Range (AFWTR). Payload-class satellites include a variety of spacecraft equipped with specific instruments for various scientific and technological missions. These include communications satellites like Starlink; space stations such as the ISS; scientific satellites like the Hubble; Earth observation satellites from companies like Planet Labs, Umbra, and HawkEye 360; GPS; miniature CubeSats for education and research; and military/defense satellites.

Loading next visibility...
Identifier
53465, 2022-099A
Orbit
SSO
Country
Flag of USUS
Related business
Manufacturer
SpaceX/Seattle
Mission
Operational Commercial Communications
Bus & Motor
STARLINK, Unknown motor
Mass
300 kg wet, ~275 kg dry
Launch date (UTC)
2022-08-12 (4 years ago)
Launch vehicle
FALCON 9
Launch site
Air Force Western Test Range (AFWTR)
Object type
Payload
Rocket body
Debris
Shape & HBR
Box + 1 Pan, 10.1 m
Radar Cross Section
13.562 m², Large (>1 m²)

Expand to show TLE details & history
Last TLE update: 7 hours ago

TLE from 7 hours ago
0 STARLINK-4415
1 53465U 22099A   26145.58114537 -.00001556  00000-0 -10376-3 0  9996
2 53465  97.4446 266.6251 0002005 113.5749 246.5689 15.05659444207602
Epoch: 2026-05-25T13:56Z
TLE epoch observation values (Epoch: 2026-05-25T13:56:50.959Z)
Latitude
-0.00005°
Longitude
174.24589°
Altitude
553.105 km
Speed
7.585 km/s
True Right ascension
17h 46m 30s
True Declination
0° 00' 00"
Sunlit
Object was in full shadow at epoch
Visualization orbit readout
Latitude
Unknown
Longitude
Unknown
Altitude
Unknown
Speed
Unknown
Apparent Right ascension
Unknown
Apparent Declination
Unknown
Sunlit
N/A
Visualization observer readout
Local Sidereal Time
06:09:55
Azimuth
Unknown
Elevation
Unknown
Doppler factor
Unknown
Orbital elements
Apogee altitude
547.857 km
Perigee altitude
545.08 km
Semi-major axis
6,924.606 km
Eccentricity
0.0002
Inclination
97.4446°
RAAN
266.6251°
Arg. of periapsis
113.5749°
True anomaly
246.54782°
Mean anomaly
246.5689°
Eccentric anomaly
246.55836°
Mean motion
3.76661 °/min
Orbital period
95.58 mins
BSTAR
-0.00010376
Loading maneuver chart data...
Computing Atmospheric mass density...
Loading historical data...
Loading historical data...
Loading historical data...
Loading historical data...
Loading historical data...
Loading historical data...
Loading historical data...

Documentation

Showing up to 5 results
|